Regional Weather Roundup
Issued by NWS

Home | Current Version | Previous Version | Graphics & Text | Print | Product List | Glossary On
Versions: 1 2 3 4 5 6 7 8 9 10 11 12 13 14 15 16 17 18 19 20 21 22 23 24 25 26 27 28 29 30 31 32 33 34 35 36 37 38 39 40 41 42 43 44 45 46 47 48 49 50
000
ASUS43 KDTX 182001
RWRMI
MICHIGAN HOURLY REGIONAL WEATHER ROUNDUP
NATIONAL WEATHER SERVICE DETROIT/PONTIAC MI
300 PM EST SAT NOV 18 2017

NOTE: "FAIR" INDICATES FEW OR NO CLOUDS BELOW 12,000 FEET WITH NO
SIGNIFICANT WEATHER AND/OR OBSTRUCTION TO VISIBILITY.

MIZ047>049-052>055-059>063-066>070-074>076-081>083-182100-
SOUTHEAST LOWER MICHIGAN

CITY           SKY/WX    TMP DP  RH WIND       PRES   REMARKS
ADRIAN         CLOUDY    45  44  97 N16       29.25S
ALMA           LGT SNOW  38  38  97 N10       29.38F WCI  31
ANN ARBOR      LGT RAIN  45  44  97 N10       29.25F
BAD AXE        LGT SNOW  40  40  99 N12       29.38S WCI  34
CARO           MIX PCPN  41  40  98 N12G17    29.37S
DETROIT CITY   LGT RAIN  50  46  86 NE10      29.26F FOG
DETROIT        LGT RAIN  47  46  97 N10       29.25S FOG
FLINT          LGT RAIN  42  41  96 N16       29.33F
GROSSE ILE     LGT RAIN  47  46  99 N7        29.22F
HILLSDALE      LGT RAIN  43  43 100 N9        29.25S
HOWELL         LGT RAIN  44  44 100 N9        29.28F

CITY           SKY/WX    TMP DP  RH WIND       PRES   REMARKS
JACKSON        CLOUDY    45  42  89 N9G20     29.28S
LAMBERTVILLE   CLOUDY    51  49  92 NE5       29.21R FOG
LANSING        LGT RAIN  41  40  96 N13       29.34F
LAPEER         RAIN      44  43  98 N8        29.32F
MASON          LGT RAIN  44  42  93 N15G23    29.30F
MONROE         CLOUDY    48  46  93 N8        29.23F
MT. CLEMENS    LGT RAIN  45  45 100 N7        29.25F FOG
PONTIAC        LGT RAIN  43  43 100 N7        29.28F FOG
PORT HOPE        N/A     42  40  92 N6        29.38R
PORT HURON     HVY RAIN  45  43  93 NE6       29.29F
TRI CITIES     RAIN      39  38  96 N15       29.39S FOG     WCI  31
MIDLAND        MIX PCPN  37  36  94 N5        29.40R WCI  34
TROY           LGT RAIN  46  45  95 N8        29.30F
SAGINAW HB     MIX PCPN  39  37  93 N15       29.37F WCI  31
$$
MIZ043>046-050>051-056>058-064>065-071>073-077>080-182100-
SOUTHWEST LOWER MICHIGAN

CITY           SKY/WX    TMP DP  RH WIND       PRES   REMARKS
BATTLE CREEK   LGT RAIN  42  40  92 N14       29.32S
BENTON HARBOR  LGT RAIN  42  38  85 N10G18    29.40R
BIG RAPIDS     LGT SNOW  37  35  93 N9        29.42F WCI  30
COLDWATER      CLOUDY    44  44 100 N17       29.29R
FREMONT        CLOUDY    39  39  99 N8        29.43S WCI  34
HOLLAND        LGT RAIN  40  37  89 N10G18    29.42R WCI  33
GRAND RAPIDS   RAIN      40  40 100 N13       29.38R FOG     WCI  32
IONIA          RAIN      40  39  97 N13G18    29.36F WCI  32
KALAMAZOO      LGT RAIN  42  38  85 N15       29.34F
LUDINGTON      DRIZZLE   40  38  91 N9        29.47S WCI  34
MARSHALL       CLOUDY    42  42  98 N8        29.31R
MOUNT PLEASANT LGT SNOW  36  34  93 N6        29.41R WCI  31
MUSKEGON       LGT RAIN  41  38  89 N8        29.45R
SOUTH HAVEN    MIX PCPN  41  39  91 N14G20    29.41R
$$
MIZ016>042-182100-
NORTHERN LOWER MICHIGAN

CITY           SKY/WX    TMP DP  RH WIND       PRES   REMARKS
ALPENA         LGT RAIN  38  37  97 N9        29.44S WCI  31
BEAVER ISLAND  CLOUDY    40  36  84 N7G18     29.52S
BELLAIRE       CLOUDY    39  37  92 N5        29.49S
CADILLAC       CLOUDY    36  35  99 N9        29.44S WCI  29
CHARLEVOIX     CLOUDY    41  35  77 N13       29.52S
FRANKFORT      RAIN      42  38  86 N7G16     29.50S
GAYLORD        CLOUDY    35  32  88 VRB5      29.45R WCI  31
GRAYLING       CLOUDY    36  33  91 N7        29.46R WCI  30
HARBOR SPRINGS CLOUDY    38  34  85 CALM      29.49S
MANISTEE       CLOUDY    41  36  82 N9G16     29.49R
OSCODA         LGT SNOW  35  33  94 N7        29.42S WCI  29
PELLSTON       CLOUDY    39  35  86 N9        29.49F WCI  33
ROGERS CITY    CLOUDY    39  34  82 N12G18    29.47S WCI  32
TRAVERSE CITY  CLOUDY    41  36  82 N9        29.48S
$$
MIZ007>008-015-182100-
EASTERN UPPER MICHIGAN

CITY           SKY/WX    TMP DP  RH WIND       PRES   REMARKS
KINROSS        CLOUDY    36  33  89 N8        29.50F WCI  30
MACKINAC ISLAN CLOUDY    39  34  83 N9        29.49S WCI  32
NEWBERRY       CLOUDY    35  34  96 N9        29.52F WCI  28
S. S. MARIE    CLOUDY    38  32  79 N6        29.50F WCI  33
MUNISING         N/A     39  34  82 N18G24    29.58S WCI  30
$$
MIZ004>006-011>014-085-182100-
CENTRAL UPPER MICHIGAN

CITY           SKY/WX    TMP DP  RH WIND       PRES   REMARKS
MANISTIQUE     CLOUDY    38  32  77 N12G24    29.54R WCI  31
ESCANABA       LGT RAIN  39  34  82 NW10      29.58R WCI  32
MENOMINEE      CLOUDY    39  32  76 N10       29.61R WCI  32
SAWYER-GWINN   LGT SNOW  34  32  93 N14G24    29.59F WCI  24
$$
MIZ001>003-009>011-084-182100-
WESTERN UPPER MICHIGAN

CITY           SKY/WX    TMP DP  RH WIND       PRES   REMARKS
IRON MOUNTAIN  CLOUDY    34  28  79 NW13      29.61S WCI  25
HOUGHTON       CLOUDY    30  24  78 NW13      29.67R WCI  20
COPPER HARBOR    N/A     33  28  81 N22G29    29.66R WCI  21
IRONWOOD       CLOUDY   N/A N/A N/A NW12      29.73R
$$

ABBREVIATIONS USED IN REMARKS
   TC - TEMPERATURE IN CELSIUS
  WCI - WIND CHILL INDEX
   HX - HEAT INDEX
  VSB - VISIBILITY




USA.gov is the U.S. government's official web portal to all federal, state and local government web resources and services.